| time (UTC) | temp C | wind direction | speed KPH | gust KPH | rain 1hr cm | rain 24hr cm | rain mn cm | humidity % | barometer mb |
| 20260504232013 | 10 | 238 | 4.8 | 14.5 | 0.00 | 0.00 | 1.45 | 67 | 1002.0 |
| 20260504231519 | 10 | 249 | 14.5 | 16.1 | 0.00 | 0.00 | 1.45 | 66 | 1002.0 |
| 20260504231014 | 10 | 254 | 4.8 | 17.7 | 0.00 | 0.00 | 1.45 | 66 | 1002.0 |
| 20260504230512 | 10 | 252 | 6.4 | 16.1 | 0.00 | 0.00 | 1.45 | 65 | 1002.0 |
| 20260504230013 | 10 | 258 | 9.7 | 17.7 | 0.00 | 0.00 | 1.45 | 64 | 1002.0 |
| 20260504225512 | 10 | 188 | 9.7 | 20.9 | 0.00 | 0.00 | 1.45 | 63 | 1002.0 |
| 20260504225011 | 10 | 245 | 16.1 | 19.3 | 0.00 | 0.00 | 1.45 | 61 | 1002.0 |
| 20260504224512 | 11 | 140 | 6.4 | 17.7 | 0.00 | 0.00 | 1.45 | 59 | 1002.0 |
| 20260504224012 | 11 | 255 | 12.9 | 24.1 | 0.00 | 0.00 | 1.45 | 57 | 1002.0 |
| 20260504223511 | 11 | 221 | 8.0 | 14.5 | 0.00 | 0.00 | 1.45 | 55 | 1002.0 |
| 20260504223013 | 11 | 144 | 8.0 | 20.9 | 0.00 | 0.00 | 1.45 | 53 | 1002.0 |
| 20260504222513 | 11 | 231 | 6.4 | 11.3 | 0.00 | 0.00 | 1.45 | 51 | 1002.0 |
| 20260504222020 | 11 | 240 | 8.0 | 25.7 | 0.00 | 0.00 | 1.45 | 50 | 1002.0 |
| 20260504221512 | 12 | 227 | 6.4 | 14.5 | 0.00 | 0.00 | 1.45 | 49 | 1002.0 |
| 20260504221012 | 12 | 203 | 8.0 | 19.3 | 0.00 | 0.00 | 1.45 | 47 | 1001.0 |
| 20260504220512 | 12 | 206 | 4.8 | 22.5 | 0.00 | 0.00 | 1.45 | 47 | 1001.0 |
| 20260504220012 | 12 | 279 | 11.3 | 19.3 | 0.00 | 0.00 | 1.45 | 46 | 1001.0 |
| 20260504215512 | 12 | 126 | 3.2 | 20.9 | 0.00 | 0.00 | 1.45 | 44 | 1001.0 |
| 20260504215013 | 12 | 247 | 9.7 | 22.5 | 0.00 | 0.00 | 1.45 | 44 | 1001.0 |
| 20260504214511 | 12 | 258 | 24.1 | 40.2 | 0.00 | 0.00 | 1.45 | 43 | 1001.0 |
| 20260504214011 | 12 | 269 | 14.5 | 33.8 | 0.00 | 0.00 | 1.45 | 44 | 1001.0 |
| 20260504213512 | 12 | 256 | 14.5 | 14.5 | 0.00 | 0.00 | 1.45 | 45 | 1001.0 |
| 20260504213013 | 12 | 214 | 8.0 | 22.5 | 0.00 | 0.00 | 1.45 | 44 | 1001.0 |
| 20260504212516 | 12 | 223 | 11.3 | 24.1 | 0.00 | 0.00 | 1.45 | 44 | 1001.0 |
| 20260504212013 | 13 | 255 | 17.7 | 37.0 | 0.00 | 0.00 | 1.45 | 43 | 1001.0 |
| 20260504211513 | 13 | 233 | 8.0 | 16.1 | 0.00 | 0.00 | 1.45 | 43 | 1001.0 |
| 20260504211011 | 13 | 248 | 12.9 | 22.5 | 0.00 | 0.00 | 1.45 | 41 | 1001.0 |
| 20260504210514 | 13 | 234 | 8.0 | 25.7 | 0.00 | 0.00 | 1.45 | 40 | 1001.0 |
| 20260504210014 | 14 | 227 | 11.3 | 24.1 | 0.00 | 0.00 | 1.45 | 38 | 1001.0 |
| 20260504205511 | 15 | 231 | 4.8 | 14.5 | 0.00 | 0.00 | 1.45 | 39 | 1001.0 |
| 20260504205014 | 15 | 241 | 9.7 | 16.1 | 0.00 | 0.00 | 1.45 | 39 | 1001.0 |
| 20260504204514 | 16 | 212 | 4.8 | 16.1 | 0.00 | 0.00 | 1.45 | 36 | 1001.0 |
| 20260504204012 | 16 | 234 | 4.8 | 11.3 | 0.00 | 0.00 | 1.45 | 37 | 1001.0 |
| 20260504203511 | 16 | 238 | 8.0 | 20.9 | 0.00 | 0.00 | 1.45 | 36 | 1000.0 |
| 20260504203015 | 17 | 245 | 25.7 | 30.6 | 0.00 | 0.00 | 1.45 | 34 | 1001.0 |
| 20260504202514 | 17 | 212 | 8.0 | 24.1 | 0.00 | 0.00 | 1.45 | 33 | 1000.0 |
| 20260504202012 | 17 | 249 | 9.7 | 19.3 | 0.00 | 0.00 | 1.45 | 31 | 1000.0 |
| 20260504201511 | 17 | 184 | 6.4 | 24.1 | 0.00 | 0.00 | 1.45 | 33 | 1000.0 |
| 20260504201012 | 16 | 253 | 16.1 | 27.4 | 0.00 | 0.00 | 1.45 | 31 | 1000.0 |
| 20260504200513 | 16 | 221 | 8.0 | 30.6 | 0.00 | 0.00 | 1.45 | 32 | 1000.0 |
| 20260504200013 | 16 | 254 | 14.5 | 17.7 | 0.00 | 0.00 | 1.45 | 36 | 1000.0 |
| 20260504195513 | 16 | 233 | 4.8 | 20.9 | 0.00 | 0.00 | 1.45 | 35 | 1000.0 |
| 20260504195015 | 16 | 248 | 11.3 | 29.0 | 0.00 | 0.00 | 1.45 | 33 | 1000.0 |
| 20260504194515 | 16 | 250 | 12.9 | 22.5 | 0.00 | 0.00 | 1.45 | 34 | 1000.0 |
| 20260504194013 | 16 | 242 | 12.9 | 20.9 | 0.00 | 0.00 | 1.45 | 36 | 1000.0 |
| 20260504193514 | 16 | 238 | 11.3 | 33.8 | 0.00 | 0.00 | 1.45 | 33 | 1000.0 |
| 20260504193013 | 16 | 261 | 12.9 | 37.0 | 0.00 | 0.00 | 1.45 | 33 | 1000.0 |
| 20260504192120 | 16 | 271 | 14.5 | 19.3 | 0.00 | 0.00 | 1.45 | 35 | 1000.0 |
| 20260504191512 | 15 | 244 | 8.0 | 29.0 | 0.00 | 0.00 | 1.45 | 35 | 1000.0 |
| 20260504191014 | 15 | 247 | 16.1 | 22.5 | 0.00 | 0.00 | 1.45 | 35 | 1000.0 |
| 20260504190512 | 16 | 248 | 22.5 | 29.0 | 0.00 | 0.00 | 1.45 | 34 | 1000.0 |
| 20260504190013 | 16 | 224 | 8.0 | 22.5 | 0.00 | 0.00 | 1.45 | 34 | 1000.0 |
| 20260504185514 | 16 | 231 | 14.5 | 22.5 | 0.00 | 0.00 | 1.45 | 37 | 1000.0 |
| 20260504185012 | 16 | 241 | 9.7 | 19.3 | 0.00 | 0.00 | 1.45 | 37 | 1000.0 |
| 20260504184515 | 15 | 242 | 8.0 | 22.5 | 0.00 | 0.00 | 1.45 | 36 | 1000.0 |
| 20260504184013 | 15 | 249 | 20.9 | 22.5 | 0.00 | 0.00 | 1.45 | 40 | 1000.0 |
| 20260504183513 | 15 | 218 | 20.9 | 22.5 | 0.00 | 0.00 | 1.45 | 39 | 1000.0 |
| 20260504182514 | 15 | 226 | 9.7 | 22.5 | 0.00 | 0.00 | 1.45 | 40 | 1000.0 |
| 20260504182014 | 14 | 279 | 8.0 | 35.4 | 0.00 | 0.00 | 1.45 | 39 | 1000.0 |
| 20260504181514 | 14 | 267 | 14.5 | 19.3 | 0.00 | 0.00 | 1.45 | 45 | 1000.0 |
| 20260504181014 | 14 | 210 | 19.3 | 29.0 | 0.00 | 0.00 | 1.45 | 44 | 1000.0 |
| 20260504180513 | 14 | 200 | 14.5 | 19.3 | 0.00 | 0.00 | 1.45 | 45 | 1000.0 |
| 20260504175549 | 13 | 240 | 14.5 | 22.5 | 0.00 | 0.00 | 1.45 | 45 | 1000.0 |
| 20260504175013 | 13 | 247 | 16.1 | 17.7 | 0.00 | 0.00 | 1.45 | 49 | 1000.0 |
| 20260504174513 | 13 | 211 | 27.4 | 30.6 | 0.00 | 0.00 | 1.45 | 47 | 1000.0 |
| 20260504174013 | 13 | 225 | 17.7 | 29.0 | 0.00 | 0.00 | 1.45 | 48 | 1000.0 |
| 20260504173515 | 13 | 265 | 12.9 | 29.0 | 0.00 | 0.00 | 1.45 | 48 | 1000.0 |
| 20260504173013 | 13 | 239 | 14.5 | 27.4 | 0.00 | 0.00 | 1.45 | 47 | 1000.0 |
| 20260504172514 | 13 | 252 | 22.5 | 40.2 | 0.00 | 0.00 | 1.45 | 47 | 1000.0 |
| 20260504172014 | 13 | 230 | 24.1 | 29.0 | 0.00 | 0.00 | 1.45 | 50 | 1000.0 |
| 20260504171514 | 13 | 211 | 16.1 | 19.3 | 0.00 | 0.00 | 1.45 | 49 | 1000.0 |
| 20260504171016 | 13 | 157 | 35.4 | 37.0 | 0.00 | 0.00 | 1.45 | 49 | 1000.0 |
| 20260504170514 | 13 | 277 | 19.3 | 20.9 | 0.00 | 0.00 | 1.45 | 50 | 1000.0 |
| 20260504151013 | 11 | 240 | 16.1 | 32.2 | 0.00 | 0.00 | 1.45 | 59 | 999.0 |
| 20260504150515 | 11 | 329 | 6.4 | 20.9 | 0.00 | 0.00 | 1.45 | 62 | 999.0 |
| 20260504140625 | 8 | 277 | 24.1 | 32.2 | 0.00 | 0.00 | 1.45 | 74 | 998.0 |
| 20260504130513 | 7 | 251 | 6.4 | 25.7 | 0.00 | 0.00 | 1.45 | 81 | 998.0 |
| 20260504110513 | 5 | 248 | 9.7 | 17.7 | 0.05 | 0.00 | 1.45 | 93 | 996.0 |
| 20260504100516 | 4 | 5 | 9.7 | 38.6 | 0.00 | 0.00 | 1.42 | 95 | 995.0 |
| 20260504081513 | 3 | 354 | 14.5 | 41.8 | 0.23 | 0.00 | 1.14 | 96 | 992.0 |
| 20260504081015 | 3 | 338 | 17.7 | 27.4 | 0.36 | 0.00 | 1.12 | 96 | 992.0 |
| 20260504080515 | 3 | 334 | 20.9 | 37.0 | 0.36 | 0.00 | 1.09 | 95 | 992.0 |
| 20260504050515 | 2 | 353 | 24.1 | 46.7 | 0.48 | 0.00 | 0.64 | 97 | 988.0 |
| 20260504050013 | 2 | 354 | 35.4 | 56.3 | 0.48 | 0.00 | 0.58 | 97 | 988.0 |
| 20260504045511 | 2 | 349 | 29.0 | 54.7 | 0.48 | 0.00 | 0.53 | 98 | 988.0 |
| 20260504045012 | 2 | 17 | 25.7 | 53.1 | 0.48 | 0.00 | 0.48 | 98 | 988.0 |
| 20260504044512 | 2 | 345 | 32.2 | 51.5 | 0.30 | 0.00 | 0.43 | 98 | 988.0 |
| 20260504044012 | 2 | 9 | 24.1 | 54.7 | 0.18 | 0.00 | 0.41 | 98 | 988.0 |
| 20260504043512 | 2 | 8 | 35.4 | 49.9 | 0.30 | 0.00 | 0.38 | 98 | 988.0 |
| 20260504043011 | 2 | 15 | 38.6 | 57.9 | 0.23 | 0.00 | 0.36 | 98 | 988.0 |
| 20260504042513 | 2 | 28 | 30.6 | 66.0 | 0.30 | 0.00 | 0.33 | 98 | 988.0 |
| 20260504042015 | 2 | 1 | 40.2 | 70.8 | 0.30 | 0.00 | 0.30 | 98 | 988.0 |
| 20260504041512 | 2 | 13 | 40.2 | 56.3 | 0.18 | 0.00 | 0.28 | 98 | 988.0 |
| 20260504041012 | 2 | 10 | 30.6 | 56.3 | 0.05 | 0.00 | 0.25 | 98 | 988.0 |
| 20260504040512 | 2 | 1 | 53.1 | 69.2 | 0.13 | 0.00 | 0.25 | 98 | 988.0 |
| 20260504040012 | 2 | 5 | 32.2 | 56.3 | 0.05 | 0.00 | 0.23 | 98 | 988.0 |
| 20260504035512 | 2 | 22 | 30.6 | 62.8 | 0.13 | 0.00 | 0.23 | 98 | 988.0 |
| 20260504035013 | 2 | 3 | 38.6 | 53.1 | 0.18 | 0.00 | 0.23 | 98 | 988.0 |
| 20260504034511 | 2 | 343 | 35.4 | 62.8 | 0.13 | 0.00 | 0.20 | 98 | 988.0 |
| 20260504034013 | 2 | 11 | 38.6 | 46.7 | 0.13 | 0.00 | 0.20 | 98 | 988.0 |
| 20260504033515 | 2 | 2 | 29.0 | 57.9 | 0.13 | 0.00 | 0.20 | 98 | 988.0 |
| 20260504033012 | 2 | 9 | 38.6 | 53.1 | 0.18 | 0.00 | 0.18 | 98 | 988.0 |
| 20260504032512 | 2 | 38 | 37.0 | 56.3 | 0.18 | 0.00 | 0.15 | 98 | 988.0 |
| 20260504032011 | 2 | 5 | 30.6 | 59.5 | 0.36 | 0.00 | 0.15 | 98 | 988.0 |
| 20260504031513 | 2 | 7 | 27.4 | 61.2 | 0.43 | 0.00 | 0.13 | 98 | 988.0 |
| 20260504031017 | 2 | 14 | 41.8 | 53.1 | 0.43 | 0.00 | 0.10 | 99 | 988.0 |
| 20260504030511 | 2 | 8 | 56.3 | 57.9 | 0.48 | 0.00 | 0.05 | 99 | 988.0 |
| 20260504030011 | 2 | 24 | 38.6 | 64.4 | 0.48 | 0.00 | 5.74 | 99 | 988.0 |
| 20260504025512 | 2 | 34 | 20.9 | 57.9 | 0.53 | 0.00 | 5.69 | 99 | 988.0 |
| 20260504025011 | 2 | 16 | 43.5 | 56.3 | 0.43 | 0.00 | 5.64 | 99 | 988.0 |
| 20260504024513 | 2 | 24 | 45.1 | 69.2 | 0.36 | 0.00 | 5.61 | 99 | 988.0 |
| 20260504024011 | 2 | 20 | 38.6 | 75.6 | 0.43 | 0.00 | 5.56 | 99 | 988.0 |
| 20260504023512 | 2 | 10 | 30.6 | 61.2 | 0.36 | 0.00 | 5.54 | 99 | 989.0 |
| 20260504023018 | 2 | 46 | 33.8 | 54.7 | 0.36 | 0.00 | 5.51 | 99 | 989.0 |
| 20260504022511 | 2 | 3 | 17.7 | 75.6 | 0.43 | 0.00 | 5.46 | 99 | 989.0 |
| 20260504022011 | 1 | 50 | 56.3 | 64.4 | 0.36 | 0.00 | 5.44 | 99 | 989.0 |
| 20260504021511 | 1 | 58 | 16.1 | 59.5 | 0.43 | 0.00 | 5.41 | 99 | 989.0 |
| 20260504021011 | 1 | 33 | 41.8 | 64.4 | 0.43 | 0.00 | 5.36 | 99 | 990.0 |
| 20260504020512 | 1 | 39 | 41.8 | 62.8 | 0.43 | 0.00 | 5.33 | 99 | 990.0 |
| 20260504020011 | 1 | 32 | 51.5 | 53.1 | 0.48 | 0.00 | 5.28 | 99 | 990.0 |
| 20260504015511 | 1 | 56 | 40.2 | 62.8 | 0.36 | 0.00 | 5.23 | 99 | 990.0 |
| 20260504015012 | 1 | 50 | 19.3 | 70.8 | 0.30 | 0.00 | 5.21 | 99 | 990.0 |
| 20260504014512 | 1 | 60 | 32.2 | 59.5 | 0.36 | 0.00 | 5.18 | 99 | 990.0 |
| 20260504013603 | 1 | 71 | 27.4 | 54.7 | 0.30 | 0.00 | 5.11 | 99 | 991.0 |
| 20260504013012 | 1 | 51 | 30.6 | 59.5 | 0.43 | 0.00 | 5.08 | 99 | 991.0 |
| 20260504012520 | 1 | 65 | 37.0 | 62.8 | 0.36 | 0.00 | 5.05 | 99 | 991.0 |
| 20260504012012 | 1 | 52 | 41.8 | 67.6 | 0.36 | 0.00 | 5.00 | 99 | 991.0 |
| 20260504011512 | 1 | 78 | 29.0 | 56.3 | 0.36 | 0.00 | 4.98 | 99 | 991.0 |
| 20260504011011 | 1 | 40 | 29.0 | 62.8 | 0.36 | 0.00 | 4.95 | 99 | 991.0 |
| 20260504010512 | 1 | 61 | 35.4 | 64.4 | 0.43 | 0.00 | 4.90 | 99 | 991.0 |
| 20260504010012 | 1 | 32 | 51.5 | 64.4 | 0.43 | 0.00 | 4.88 | 98 | 991.0 |
| 20260504005511 | 1 | 56 | 30.6 | 67.6 | 0.43 | 0.00 | 4.85 | 98 | 991.0 |
| 20260504005011 | 2 | 49 | 51.5 | 61.2 | 0.43 | 0.00 | 4.80 | 99 | 991.0 |
| 20260504004511 | 2 | 70 | 56.3 | 80.5 | 0.48 | 0.00 | 4.78 | 99 | 991.0 |
| 20260504004011 | 2 | 65 | 40.2 | 66.0 | 0.53 | 0.00 | 4.72 | 99 | 991.0 |
| 20260504003512 | 2 | 45 | 48.3 | 67.6 | 0.53 | 0.00 | 4.67 | 99 | 991.0 |
| 20260504003011 | 2 | 55 | 56.3 | 77.2 | 0.61 | 0.00 | 4.62 | 99 | 991.0 |
| 20260504002511 | 2 | 52 | 32.2 | 57.9 | 0.79 | 0.00 | 4.57 | 99 | 992.0 |
| 20260504002012 | 2 | 43 | 27.4 | 62.8 | 0.89 | 0.00 | 4.52 | 99 | 992.0 |
| 20260504001514 | 2 | 65 | 24.1 | 67.6 | 0.97 | 0.00 | 4.45 | 99 | 992.0 |
| 20260504001012 | 2 | 52 | 35.4 | 56.3 | 1.19 | 0.00 | 4.37 | 98 | 992.0 |
| 20260504000511 | 2 | 28 | 33.8 | 64.4 | 0.89 | 0.00 | 4.24 | 99 | 992.0 |
| 20260504000013 | 2 | 53 | 46.7 | 54.7 | 0.79 | 0.00 | 4.14 | 99 | 992.0 |
| 20260503235512 | 2 | 54 | 29.0 | 59.5 | 0.89 | 0.00 | 4.06 | 99 | 992.0 |
| 20260503234527 | 2 | 60 | 27.4 | 61.2 | 0.66 | 0.00 | 3.91 | 99 | 992.0 |
| 20260503234012 | 2 | 69 | 43.5 | 59.5 | 0.71 | 0.00 | 3.86 | 98 | 993.0 |
| 20260503233511 | 2 | 53 | 38.6 | 61.2 | 0.66 | 0.00 | 3.81 | 98 | 993.0 |
| 20260503233012 | 2 | 49 | 49.9 | 61.2 | 0.66 | 0.00 | 3.73 | 98 | 993.0 |
| 20260503232512 | 2 | 37 | 46.7 | 66.0 | 0.53 | 0.00 | 3.68 | 98 | 993.0 |